STARLINK-1161, 45068

Orbit data source: Space-Track

STARLINK-1161, 45068 is a payload satellite owned by SpaceX/Seattle (US) in LEO that was launched on Wed, 29 Jan 2020 UTC via an FALCON 9 launch vehicle from the Air Force Eastern Test Range (AFETR). Payloads include a variety of satellites, spacecraft, and rockets equipped with specific instruments for various scientific and technological missions. These include communications satellites like Starlink; space stations such as the ISS; scientific satellites like the Hubble; Earth observation satellites from companies like Planet Labs, Umbra, and HawkEye 360; GPS; miniature CubeSats for education and research; and military/defense satellites.

Loading next visibility...
STARLINK-1161 details
Identifier
45068, 2020-006AA
Orbit
LEO
Last TLE update23 hours ago
Origin
Flag of USSpaceX/Seattle (US)
ManufacturerSpaceX/Seattle
MissionPartially operational Commercial Communications
Bus & MotorSTARLINK, Unknown motor
Mass260 kg wet, ~248 kg dry
Launch date (UTC)
2020-01-29 (5 years ago)
Launch vehicle
FALCON 9
Launch site
Air Force Eastern Test Range (AFETR)
Object type
Payload
Rocket body
Debris
Shape & HBRBox + 1 Pan, 8.86 m
Radar Cross Section13.562 m², Large (>1 m²)

Expand to show TLE details & history

TLE from 23 hours ago
0 STARLINK-1161
1 45068U 20006AA  24360.49748397  .00096442  00000-0  33937-2 0  9999
2 45068  53.0349  66.6485 0003420 336.5168  23.5673 15.28547913270702
Epoch: 2024-12-25T11:56Z
Definitive object data (Epoch: 2024-12-25T11:56:22.615Z)
Latitude-0.00006°
Longitude153.06385°
Altitude478.888 km
Speed7.629 km/s
True Right ascension04h 26m 35s
True Declination0° 00' 00"
Sunlit
Object was in full shadow at TLE epoch
Visualization TLE readout
Latitude34.82975°
Longitude-62.68782°
Altitude484.276 km
Speed7.627 km/s
Apparent Right ascension17h 31m 08s
Apparent Declination-1° 46' 18"
Sunlit
Object is in daylight
Visualization observer readout
Local Sidereal Time09:50:48
Azimuth74.668° E
Elevation-20.173°
Doppler factor1
Orbital elements
Apogee altitude482.774 km
Perigee altitude478.083 km
Semi-major axis6,858.566 km
Eccentricity0.000342
Inclination53.0349°
RAAN66.6485°
Arg. of periapsis336.5168°
True anomaly23.58298°
Mean anomaly23.5673°
Eccentric anomaly23.57514°
Mean motion3.82114 °/min
BSTAR0.0033937
Orbital period94.21 mins
Loading maneuver chart data...
Loading historical data...
Loading historical data...
Loading historical data...
Loading historical data...
Loading historical data...
Loading historical data...
Loading historical data...

STARLINK-1161 Visibility forecast

Observer location: undefined°, undefined

Span
Click to sort rows by Start time (UTC) header in descending order
Start Az.
Max El. time (UTC)
Max El. Az.
Max El.
End time (UTC)
End Az.
5 mins2024-12-26 13:32:36.612Z334.179° NNW2024-12-26 13:34:36.612Z43.922° NE35.004°2024-12-26 13:37:36.612Z106.551° ESE
4 mins2024-12-26 15:10:36.612Z265.634° W2024-12-26 15:12:36.612Z221.089° SW20.129°2024-12-26 15:14:36.612Z184.384° SSW
5 mins2024-12-27 06:28:36.612Z197.572° SSW2024-12-27 06:30:36.612Z149.607° SSE33.166°2024-12-27 06:33:36.612Z67.77° E
4 mins2024-12-27 08:07:36.612Z293.923° NW2024-12-27 08:08:36.612Z318.754° NNW24.403°2024-12-27 08:11:36.612Z26.19° NE
|